RAZAKSAT - Orbit Data

View from orbit pole
View from above orbital plane
View from above satellite
View from above satellite

Ground track
Ground track

The orbit data is extracted from the following two-line orbital elements,

1 35578U 09037A   10211.61783235  .00000627  00000-0  14341-4 0  1508
2 35578 008.9884 292.8112 0016929 236.3333 123.5259 14.64986911 56021
Epoch (UTC): 14:49:40, Friday, July 30, 2010
Eccentricity: 0.0016929
Inclination: 8.9884°
Perigee height: 665 km
Apogee height: 689 km
Right Ascension of ascending node: 292.8112°
Argument of perigee: 236.3333°
Revolutions per day: 14.64986911
Mean anomaly at epoch: 123.5259°
Orbit number at epoch: 5602

The dashed part of the orbit path shows where the satellite is in the earth's shadow,
and the full part is where it is sunlit.  


Developed and maintained by Chris Peat, Heavens-Above GmbH
Please read the updated FAQ before sending e-mail. Imprint.
DLR